TimeGMT,TemperatureF,Dew PointF,Humidity,Sea Level PressureIn,VisibilityMPH,Wind Direction,Wind SpeedMPH,Gust SpeedMPH,PrecipitationIn,Events,Conditions,WindDirDegrees,DateUTC
12:00 AM,43,40,85,28.16,,SSW,31.3,,,,,200,2013-12-27 00:00:00
1:00 AM,43,40,87,28.11,,SSW,29.1,,,,,200,2013-12-27 01:00:00
2:00 AM,43,42,94,28.09,,SSW,31.3,,,,,210,2013-12-27 02:00:00
3:00 AM,43,42,92,28.13,,SW,17.9,,,,,220,2013-12-27 03:00:00
4:00 AM,43,41,92,28.14,,SSW,13.4,,,,,210,2013-12-27 04:00:00
5:00 AM,43,40,84,28.15,,SW,17.9,,,,,230,2013-12-27 05:00:00
6:00 AM,42,41,93,28.23,6,WSW,33.6,,,Rain,Light Rain Showers,250,2013-12-27 06:00:00
6:00 AM,42.8,41.0,93,28.20,6.2,WSW,33.4,46.0,N/A,Rain,Light Rain Showers,250,2013-12-27 06:00:00
7:00 AM,42,40,88,28.29,6,WSW,44.7,,,Rain,Light Rain Showers,250,2013-12-27 07:00:00
7:00 AM,41.0,39.2,93,28.26,6.2,WSW,44.9,59.8,N/A,Rain,Light Rain Showers,250,2013-12-27 07:00:00
8:00 AM,42,39,85,28.36,7,WSW,35.8,,,Rain,Light Rain Showers,250,2013-12-27 08:00:00
8:00 AM,42.8,39.2,87,28.32,6.2,WSW,36.8,49.5,N/A,Rain,Light Rain Showers,250,2013-12-27 08:00:00
8:30 AM,41.0,39.2,93,28.38,6.2,WSW,38.0,51.8,N/A,Rain,Light Rain Showers,250,2013-12-27 08:30:00
9:00 AM,41,40,93,28.46,9,West,40.3,,,Rain,Light Rain Showers,260,2013-12-27 09:00:00
9:00 AM,41.0,39.2,93,28.41,6.2,West,39.1,51.8,N/A,Rain,Light Rain Showers,260,2013-12-27 09:00:00
9:30 AM,39.2,37.4,93,28.47,6.2,West,39.1,52.9,N/A,Rain,Light Rain Showers,270,2013-12-27 09:30:00
10:00 AM,41,38,87,28.54,7,West,31.3,,,Rain,Light Rain Showers,260,2013-12-27 10:00:00
10:00 AM,41.0,39.2,93,28.50,6.2,West,32.2,47.2,N/A,Rain,Light Rain Showers,260,2013-12-27 10:00:00
10:30 AM,41.0,39.2,93,28.53,6.2,West,32.2,47.2,N/A,Rain,Light Rain Showers,260,2013-12-27 10:30:00
11:00 AM,40,39,94,28.60,11,WSW,29.1,,,Rain,Light Rain Showers,250,2013-12-27 11:00:00
11:00 AM,41.0,39.2,93,28.56,6.2,WSW,29.9,41.4,N/A,,Mostly Cloudy,250,2013-12-27 11:00:00
11:30 AM,41.0,39.2,93,28.59,6.2,WSW,28.8,42.6,N/A,,Mostly Cloudy,250,2013-12-27 11:30:00
12:00 PM,42,38,82,28.65,16,West,26.8,,,Rain,Light Rain Showers,270,2013-12-27 12:00:00
12:00 PM,41.0,39.2,93,28.62,6.2,West,27.6,41.4,N/A,,Mostly Cloudy,270,2013-12-27 12:00:00
12:30 PM,41.0,35.6,81,28.65,6.2,West,28.8,41.4,N/A,Rain,Light Rain Showers,260,2013-12-27 12:30:00
1:00 PM,41,36,78,28.69,22,West,22.4,,,Rain,Light Rain Showers,270,2013-12-27 13:00:00
1:00 PM,41.0,37.4,87,28.65,6.2,West,21.9,34.5,N/A,Rain,Light Rain Showers,270,2013-12-27 13:00:00
1:30 PM,41.0,37.4,87,28.68,6.2,West,15.0,-,N/A,,Scattered Clouds,260,2013-12-27 13:30:00
2:00 PM,41,36,78,28.73,16,WSW,13.4,,,,Partly Cloudy,250,2013-12-27 14:00:00
2:00 PM,41.0,37.4,87,28.71,6.2,WSW,13.8,-,N/A,,Scattered Clouds,250,2013-12-27 14:00:00
2:30 PM,41.0,37.4,87,28.71,6.2,WSW,13.8,25.3,N/A,,Mostly Cloudy,240,2013-12-27 14:30:00
3:00 PM,40,39,94,28.76,7,WSW,13.4,,,Rain,Light Rain Showers,250,2013-12-27 15:00:00
3:00 PM,41.0,39.2,93,28.74,6.2,WSW,13.8,-,N/A,Rain,Light Rain Showers,250,2013-12-27 15:00:00
3:30 PM,39.2,39.2,100,28.77,6.2,SW,11.5,-,N/A,,Scattered Clouds,230,2013-12-27 15:30:00
4:00 PM,40,37,87,28.80,12,WSW,11.2,,,Rain,Light Rain Showers,240,2013-12-27 16:00:00
4:00 PM,41.0,37.4,87,28.77,6.2,WSW,11.5,-,N/A,,Mostly Cloudy,240,2013-12-27 16:00:00
4:30 PM,39.2,37.4,93,28.80,5.0,SW,10.4,-,N/A,Rain,Light Rain Showers,230,2013-12-27 16:30:00
5:00 PM,38,36,92,28.85,7,SW,13.4,,,Rain,Light Rain Showers,230,2013-12-27 17:00:00
5:00 PM,39.2,37.4,93,28.82,6.2,SW,13.8,-,N/A,Rain,Light Rain Showers,230,2013-12-27 17:00:00
6:00 PM,38,36,91,28.89,12,SW,13.4,,,Rain,Light Rain Showers,230,2013-12-27 18:00:00
6:00 PM,37.4,35.6,93,28.85,6.2,SW,12.7,-,N/A,,Mostly Cloudy,230,2013-12-27 18:00:00
6:30 PM,37.4,35.6,93,28.85,6.2,SW,11.5,-,N/A,,Mostly Cloudy,220,2013-12-27 18:30:00
7:00 PM,38,36,88,28.92,16,WSW,13.4,,,,Mostly Cloudy,240,2013-12-27 19:00:00
7:00 PM,37.4,35.6,93,28.88,6.2,WSW,13.8,-,N/A,,Mostly Cloudy,240,2013-12-27 19:00:00
8:00 PM,38,36,88,28.95,,WSW,8.9,,,,,240,2013-12-27 20:00:00
9:00 PM,37,36,94,28.98,,SW,8.9,,,,,230,2013-12-27 21:00:00
10:00 PM,36,36,98,29.00,,SW,8.9,,,,,230,2013-12-27 22:00:00
11:00 PM,36,36,98,29.01,,SW,11.2,,,,,230,2013-12-27 23:00:00